Flag for Canada Weather past 2 weeks in Paradise, Newfoundland and Labrador, Canada

Now
43 °F

Cloudy.


Feels Like: 37 °F
Forecast: 30 / 42 °F
Wind: 10 mph from Southwest

Location: St. John's

Current Time: Feb 1, 2015 at 5:05:50 PM

Latest Report: Feb 1, 2015 at 4:30 PM


Visibility: 15 mi

Pressure: 29.19 "Hg

Humidity: 87%

Dew point: 39 °F

Location of ParadiseLocation

Historic Weather in Paradise — Graph

°F

Paradise temperature yesterday

Maximum temperature yesterday: 30 °F (at 9:30 AM)
Minimum temperature yesterday: 25 °F (at 6:30 AM)
Average temperature yesterday: 28 °F

Past Weeks' High & Low Weather Summary

 TemperatureHumidityPressure
High50 °F (Jan 28, 9:30 AM)100% (Jan 17, 3:30 PM)30.58 "Hg (Jan 17, 3:30 PM)
Low10 °F (Jan 18, 6:30 AM)59% (Jan 26, 1:30 PM)29.02 "Hg (Jan 25, 11:30 AM)
Average29 °F89%29.85 "Hg
* Reported Jan 17 3:30 PM — Feb 1 3:30 PM, Paradise, Weather by CustomWeather, © 2014

Note: Actual official high and low records may vary slightly from our data, if they occured in-between our weather recording intervals... More about our weather records

Advertising

Paradise weather history for previous 24 hours

 ConditionsComfort  
Time TempWeatherWind HumidityBarometerVisibility
3:30 PM
Feb 1
43 °FPartly sunny.10 mph100%29.18 "Hg15 mi
2:30 PM45 °FBroken clouds.12 mph93%29.18 "Hg15 mi
1:30 PM41 °FFog.12 mph100%29.21 "Hg3 mi
12:30 PM41 °FFog.17 mph100%29.24 "Hg3 mi
12:15 PM41 °FDrizzle. Fog.18 mph100%29.25 "Hg1 mi
11:30 AM41 °FFog.14 mph100%29.26 "Hg0 mi
10:30 AM39 °FFog.16 mph100%29.29 "Hg1 mi
9:30 AM37 °FFog.17 mph100%29.29 "Hg1 mi
8:30 AM37 °FFog.18 mph100%29.30 "Hg1 mi
7:30 AM36 °FDrizzle. Fog.17 mph100%29.32 "Hg2 mi
6:30 AM34 °FDrizzle. Fog.17 mph100%29.33 "Hg3 mi
6:19 AM34 °FDrizzle. Fog.18 mph100%29.34 "Hg1 mi
5:30 AM32 °FDrizzle. Fog.16 mph100%29.36 "Hg1 mi
4:30 AM30 °FLight freezing rain. Ice fog.6 mph100%29.39 "Hg1 mi
3:30 AM30 °FLight freezing rain. Ice fog.12 mph100%29.44 "Hg1 mi
2:30 AM30 °FChilly.10 mph100%29.52 "Hg1 mi
1:30 AM30 °FLight freezing rain. Ice fog.13 mph100%29.58 "Hg1 mi
1:16 AM30 °FLight freezing rain. Ice fog.9 mph100%29.59 "Hg1 mi
12:30 AM30 °FLight freezing rain. Ice fog.15 mph100%29.64 "Hg0 mi
11:30 PM
Jan 31
30 °FLight freezing rain. Ice fog.16 mph100%29.70 "Hg1 mi
10:30 PM30 °FLight freezing rain. Ice fog.17 mph100%29.74 "Hg1 mi
9:30 PM30 °FLight freezing rain. Ice fog.16 mph100%29.78 "Hg1 mi
8:30 PM30 °FLight freezing rain. Ice fog.14 mph100%29.83 "Hg1 mi
7:30 PM30 °FLight freezing rain. Ice fog.18 mph100%29.85 "Hg0 mi
6:30 PM30 °FLight freezing rain. Ice fog.16 mph100%29.89 "Hg0 mi
5:30 PM28 °FChilly.14 mph100%29.90 "Hg0 mi
Weather by CustomWeather, © 2014

See weather overviewHow to use our weather pages